timestamp,surface_pressure_avg,surface_temp_avg,battery_voltage,lat,long
2021-06-13 00:09:01+00:00,342.5146,8.4,13.05,47.84626,-54.09684
2021-06-13 00:19:01+00:00,346.4579,8.4,12.73,47.84626,-54.09684
2021-06-13 00:29:01+00:00,348.4097,8.4,12.73,47.84626,-54.09684
2021-06-13 00:39:01+00:00,352.7897,8.4,12.73,47.84626,-54.09684
2021-06-13 00:49:01+00:00,352.6813,8.4,12.73,47.84626,-54.09684
2021-06-13 00:59:01+00:00,349.8979,8.4,12.73,47.84626,-54.09684
2021-06-13 01:09:01+00:00,352.7562,8.41,12.73,47.84626,-54.09684
2021-06-13 01:19:01+00:00,355.3396,8.41,12.65,47.84626,-54.09684
2021-06-13 01:29:01+00:00,350.9713,8.41,12.65,47.84626,-54.09684
2021-06-13 01:39:01+00:00,350.528,8.4,12.65,47.84626,-54.09684
2021-06-13 01:49:01+00:00,356.2646,8.4,12.65,47.84626,-54.09684
2021-06-13 01:59:01+00:00,359.2513,8.4,12.65,47.84626,-54.09684
2021-06-13 02:09:01+00:00,356.0212,8.4,12.65,47.84626,-54.09684
2021-06-13 02:19:01+00:00,354.968,8.4,12.65,47.84626,-54.09684
2021-06-13 02:29:01+00:00,353.0495,8.4,12.65,47.84626,-54.09684
2021-06-13 02:39:01+00:00,346.13300000000015,8.4,12.65,47.84626,-54.09684
2021-06-13 02:49:01+00:00,342.7313,8.4,12.65,47.84626,-54.09684
2021-06-13 02:59:01+00:00,336.1581,8.4,12.65,47.84626,-54.09684
2021-06-13 03:09:01+00:00,332.3246,8.4,12.65,47.84626,-54.09684
2021-06-13 03:19:01+00:00,328.5996,8.4,12.65,47.84626,-54.09684
2021-06-13 03:29:01+00:00,325.918,8.4,12.65,47.84626,-54.09684
2021-06-13 03:39:01+00:00,318.2746,8.4,12.65,47.84626,-54.09684
2021-06-13 03:49:01+00:00,309.4464,8.4,12.65,47.84626,-54.09684
2021-06-13 03:59:01+00:00,304.558,8.4,12.65,47.84626,-54.09684
2021-06-13 04:09:01+00:00,298.2313,8.4,12.65,47.84626,-54.09684
2021-06-13 04:19:00+00:00,287.8331,8.4,12.65,47.84626,-54.09684
2021-06-13 04:29:00+00:00,281.9514,8.4,12.65,47.84626,-54.09684
2021-06-13 04:39:00+00:00,278.2681,8.5,12.65,47.84626,-54.09684
2021-06-13 04:49:00+00:00,272.2014,8.51,12.65,47.84626,-54.09684
2021-06-13 04:59:00+00:00,262.0381,8.59,12.65,47.84626,-54.09684
2021-06-13 05:09:00+00:00,256.4314,8.6,12.65,47.84626,-54.09684
2021-06-13 05:19:01+00:00,251.5747,8.6,12.65,47.84626,-54.09684
2021-06-13 05:29:01+00:00,241.7881,8.63,12.65,47.84626,-54.09684
2021-06-13 05:39:01+00:00,230.7347,8.65,12.65,47.84626,-54.09684
2021-06-13 05:49:01+00:00,222.2531,8.63,12.65,47.84626,-54.09684
2021-06-13 05:59:01+00:00,216.3597,8.6,12.65,47.84626,-54.09684
2021-06-13 06:09:01+00:00,210.2181,8.6,12.65,47.84626,-54.09684
2021-06-13 06:19:00+00:00,205.9881,8.6,12.65,47.84626,-54.09684
2021-06-13 06:29:00+00:00,204.1814,8.6,12.65,47.84626,-54.09684
2021-06-13 06:39:00+00:00,198.4681,8.6,12.65,47.84626,-54.09684
2021-06-13 06:49:00+00:00,193.8398,8.6,12.65,47.84626,-54.09684
2021-06-13 06:59:00+00:00,196.8648,8.6,12.65,47.84626,-54.09684
2021-06-13 07:09:00+00:00,195.4881,8.6,12.65,47.84626,-54.09684
2021-06-13 07:19:01+00:00,188.6014,8.6,12.65,47.84626,-54.09684
2021-06-13 07:29:01+00:00,190.6681,8.6,12.65,47.84626,-54.09684
2021-06-13 07:39:01+00:00,194.9698,8.6,12.65,47.84626,-54.09684
2021-06-13 07:49:01+00:00,193.1982,8.6,12.65,47.84626,-54.09684
2021-06-13 07:59:01+00:00,195.6781,8.6,12.65,47.84626,-54.09684
2021-06-13 08:09:01+00:00,206.9948,8.6,12.65,47.84626,-54.09684
2021-06-13 08:19:00+00:00,214.8915,8.6,12.65,47.84626,-54.09684
2021-06-13 08:29:00+00:00,215.5231,8.6,12.65,47.84626,-54.09684
2021-06-13 08:39:00+00:00,217.4114,8.6,12.65,47.84626,-54.09684
2021-06-13 08:49:00+00:00,223.8365,8.59,12.65,47.84626,-54.09684
2021-06-13 08:59:00+00:00,227.0497,8.59,12.65,47.84626,-54.09684
2021-06-13 09:09:00+00:00,224.6981,8.59,12.65,47.84626,-54.09684
2021-06-13 09:19:01+00:00,225.8364,8.59,12.81,47.84626,-54.09684
2021-06-13 09:29:01+00:00,237.3481,8.59,12.81,47.84626,-54.09684
2021-06-13 09:39:01+00:00,240.3797,8.6,12.81,47.84626,-54.09684
2021-06-13 09:49:01+00:00,233.6497,8.6,12.81,47.84626,-54.09684
2021-06-13 09:59:01+00:00,237.5064,8.6,12.81,47.84626,-54.09684
2021-06-13 10:09:01+00:00,246.4947,8.6,12.81,47.84626,-54.09684
2021-06-13 10:19:01+00:00,249.2531,8.59,13.44,47.84626,-54.09684
2021-06-13 10:29:01+00:00,254.3415,8.6,13.44,47.84626,-54.09684
2021-06-13 10:39:01+00:00,259.063,8.6,13.44,47.84626,-54.09684
2021-06-13 10:49:01+00:00,260.6897,8.6,13.44,47.84626,-54.09684
2021-06-13 10:59:01+00:00,267.1681,8.6,13.44,47.84626,-54.09684
2021-06-13 11:09:01+00:00,277.288,8.6,13.44,47.84626,-54.09684
2021-06-13 11:19:01+00:00,281.578,8.6,14.32,47.84626,-54.09684
2021-06-13 11:29:01+00:00,283.5597,8.6,14.32,47.84626,-54.09684
2021-06-13 11:39:01+00:00,293.4464,8.6,14.32,47.84626,-54.09684
2021-06-13 11:49:01+00:00,302.048,8.6,14.32,47.84626,-54.09684
2021-06-13 11:59:01+00:00,305.4047,8.6,14.32,47.84626,-54.09684
2021-06-13 12:09:01+00:00,308.813,8.6,14.32,47.84626,-54.09684
2021-06-13 12:19:01+00:00,315.0596,8.6,14.48,47.84626,-54.09684
2021-06-13 12:29:01+00:00,321.2363,8.6,14.48,47.84626,-54.09684
2021-06-13 12:39:01+00:00,323.363,8.6,14.48,47.84626,-54.09684
2021-06-13 12:49:01+00:00,330.4897,8.6,14.48,47.84626,-54.09684
2021-06-13 12:59:01+00:00,333.0563,8.6,14.48,47.84626,-54.09684
2021-06-13 13:09:01+00:00,331.6113,8.6,14.48,47.84626,-54.09684
2021-06-13 13:19:01+00:00,333.4346,8.6,14.4,47.84626,-54.09684
2021-06-13 13:29:01+00:00,338.7429,8.6,14.4,47.84626,-54.09684
2021-06-13 13:39:01+00:00,336.898,8.6,14.4,47.84626,-54.09684
2021-06-13 13:49:01+00:00,331.6296,8.6,14.4,47.84626,-54.09684
2021-06-13 13:59:01+00:00,333.2979,8.6,14.4,47.84626,-54.09684
2021-06-13 14:09:01+00:00,334.208,8.6,14.4,47.84626,-54.09684
2021-06-13 14:19:01+00:00,326.9597,8.6,14.32,47.84626,-54.09684
2021-06-13 14:29:01+00:00,326.3763,8.6,14.32,47.84626,-54.09684
2021-06-13 14:39:01+00:00,328.4714,8.6,14.32,47.84626,-54.09684
2021-06-13 14:49:01+00:00,322.0781,8.6,14.32,47.84626,-54.09684
2021-06-13 14:59:01+00:00,318.3146,8.6,14.32,47.84626,-54.09684
2021-06-13 15:09:01+00:00,317.2162,8.6,14.32,47.84626,-54.09684
2021-06-13 15:19:01+00:00,312.8781,8.6,14.32,47.84626,-54.09684
2021-06-13 15:29:01+00:00,302.0514,8.6,14.32,47.84626,-54.09684
2021-06-13 15:39:01+00:00,300.7797,8.6,14.32,47.84626,-54.09684
2021-06-13 15:49:01+00:00,298.0613,8.6,14.32,47.84626,-54.09684
2021-06-13 15:59:01+00:00,290.8331,8.6,14.32,47.84626,-54.09684
2021-06-13 16:09:01+00:00,286.6531,8.6,14.32,47.84626,-54.09684
2021-06-13 16:19:01+00:00,285.478,8.62,14.0,47.84626,-54.09684
2021-06-13 16:29:01+00:00,278.6263,8.64,14.0,47.84626,-54.09684
2021-06-13 16:39:01+00:00,271.1764,8.67,14.0,47.84626,-54.09684
2021-06-13 16:49:01+00:00,267.8197,8.69,14.0,47.84626,-54.09684
2021-06-13 16:59:01+00:00,261.3164,8.69,14.0,47.84626,-54.09684
2021-06-13 17:09:01+00:00,251.6664,8.7,14.0,47.84626,-54.09684
2021-06-13 17:19:01+00:00,244.8448,8.7,13.92,47.84626,-54.09684
2021-06-13 17:29:01+00:00,242.228,8.7,13.92,47.84626,-54.09684
2021-06-13 17:39:01+00:00,236.6581,8.7,13.92,47.84626,-54.09684
2021-06-13 17:49:01+00:00,228.2664,8.7,13.92,47.84626,-54.09684
2021-06-13 17:59:01+00:00,222.0781,8.7,13.92,47.84626,-54.09684
2021-06-13 18:09:01+00:00,219.8464,8.7,13.92,47.84626,-54.09684
2021-06-13 18:19:01+00:00,214.5531,8.7,13.84,47.84626,-54.09684
2021-06-13 18:29:01+00:00,209.9998,8.7,13.84,47.84626,-54.09684
2021-06-13 18:39:01+00:00,209.5865,8.7,13.84,47.84626,-54.09684
2021-06-13 18:49:01+00:00,210.7564,8.7,13.84,47.84626,-54.09684
2021-06-13 18:59:01+00:00,208.4847,8.7,13.84,47.84626,-54.09684
2021-06-13 19:09:01+00:00,206.1748,8.7,13.84,47.84626,-54.09684
2021-06-13 19:19:01+00:00,208.3315,8.7,14.0,47.84626,-54.09684
2021-06-13 19:29:01+00:00,210.6331,8.7,14.0,47.84626,-54.09684
2021-06-13 19:39:01+00:00,207.9532,8.7,14.0,47.84626,-54.09684
2021-06-13 19:49:01+00:00,205.2115,8.76,14.0,47.84626,-54.09684
2021-06-13 19:59:01+00:00,211.6014,8.78,14.0,47.84626,-54.09684
2021-06-13 20:09:01+00:00,219.6347,8.75,14.0,47.84626,-54.09684
2021-06-13 20:19:01+00:00,220.7881,8.76,13.76,47.84626,-54.09684
2021-06-13 20:29:01+00:00,224.8647,8.78,13.76,47.84626,-54.09684
2021-06-13 20:39:01+00:00,233.2581,8.74,13.76,47.84626,-54.09684
2021-06-13 20:49:01+00:00,239.8647,8.75,13.76,47.84626,-54.09684
2021-06-13 20:59:01+00:00,243.8031,8.77,13.76,47.84626,-54.09684
2021-06-13 21:09:01+00:00,247.5798,8.8,13.76,47.84626,-54.09684
2021-06-13 21:19:00+00:00,251.1864,8.8,13.68,47.84626,-54.09684
2021-06-13 21:29:00+00:00,253.4448,8.8,13.68,47.84626,-54.09684
2021-06-13 21:39:00+00:00,256.0464,8.8,13.68,47.84626,-54.09684
2021-06-13 21:49:00+00:00,260.8114,8.8,13.68,47.84626,-54.09684
2021-06-13 21:59:00+00:00,265.9381,8.8,13.68,47.84626,-54.09684
2021-06-13 22:09:00+00:00,266.9231,8.8,13.68,47.84626,-54.09684
2021-06-13 22:19:01+00:00,267.9464,8.8,13.53,47.84626,-54.09684
2021-06-13 22:29:01+00:00,271.0848,8.8,13.53,47.84626,-54.09684
2021-06-13 22:39:01+00:00,278.2731,8.8,13.53,47.84626,-54.09684
2021-06-13 22:49:01+00:00,278.7231,8.8,13.53,47.84626,-54.09684
2021-06-13 22:59:01+00:00,279.5148,8.8,13.53,47.84626,-54.09684
2021-06-13 23:09:01+00:00,285.9714,8.8,13.53,47.84626,-54.09684
2021-06-13 23:19:01+00:00,293.3297,8.8,13.29,47.84626,-54.09684
2021-06-13 23:29:01+00:00,297.5547,8.8,13.29,47.84626,-54.09684
2021-06-13 23:39:01+00:00,305.0897,8.8,13.29,47.84626,-54.09684
2021-06-13 23:49:01+00:00,311.0397,8.8,13.29,47.84626,-54.09684
2021-06-13 23:59:01+00:00,316.298,8.83,13.29,47.84626,-54.09684
